Location: Beccas
(43.4309°N, 0.1528°E)
Time: 07:10:38
(UTC+00:00)

Cosmos 1703 - Pass Details

Date: 29 May 2022
Orbit: 518 x 535 km, 82.5° (Epoch: 06 July)

Event Time Altitude Azimuth Distance (km) Brightness Sun altitude
Exits shadow 02:38:34 28° 232° (SW) 1,030 4.1 -15.1°
Maximum altitude 02:40:08 41° 282° (WNW) 781 3.9 -14.9°
Drops below altitude 10° 02:43:53 10° 354° (N) 1,793 6.6 -14.5°
Sets 02:46:07 0° 2° (N) 2,685 7.7 -14.2°
